Location: Ahstedt
(52.2048°N, 10.1060°E)
Time: 14:51:55
(UTC+00:00)

Cosmos 540 Rocket - Visible Passes

Search period start: 11 April 2026 00:00
Search period end: 21 April 2026 00:00
Orbit: 734 x 748 km, 74.1° (Epoch: 11 April)

Date Brightness Start Highest point End Pass type
(mag) Time Alt. Az. Time Alt. Az. Time Alt. Az.
11 Apr 6.2 02:33:03 10° ESE 02:35:34 14° E 02:38:05 10° ENE visible
12 Apr 4.6 03:26:18 10° S 03:31:08 45° ESE 03:36:02 10° NE visible
13 Apr 5.5 02:42:07 10° SSE 02:46:14 25° E 02:50:24 10° NE visible
14 Apr 6.0 01:59:01 10° ESE 02:01:32 14° E 02:04:02 10° ENE visible
14 Apr 3.6 03:37:01 10° SSW 03:42:09 81° ESE 03:47:19 10° NNE visible
15 Apr 4.5 02:52:14 10° S 02:57:05 45° ESE 03:01:59 10° NE visible
16 Apr 5.4 02:08:06 10° SSE 02:12:12 25° E 02:16:21 10° NE visible
17 Apr 5.9 01:25:00 10° ESE 01:27:29 14° E 01:29:59 10° ENE visible
17 Apr 3.6 03:02:58 10° SSW 03:08:05 80° ESE 03:13:16 10° NNE visible
18 Apr 4.4 02:18:35 12° S 02:23:03 44° ESE 02:27:56 10° NE visible
19 Apr 5.2 01:34:29 12° SSE 01:38:09 25° E 01:42:17 10° NE visible
19 Apr 3.6 03:14:11 10° SW 03:19:15 59° WNW 03:24:22 10° NNE visible
20 Apr 5.9 00:50:56 10° ESE 00:53:25 14° E 00:55:55 10° ENE visible
20 Apr 3.5 02:30:02 17° SSW 02:34:02 80° ESE 02:39:12 10° NNE visible
